User: anonymous   Login
Location: Pl�tzky
(52.0521°N, 11.8020°E)
Time: 19:44:40
(UTC+00:00)
Language:

Cosmos 158 Rocket - Orbit

View from above orbital plane
View from above orbital plane
View from above satellite
View from above satellite

Ground track
Ground track

The orbit data is extracted from the following two-line orbital elements,

1  2802U 67045B   20023.51716239 -.00000050 +00000-0 -62365-5 0  9999
2  2802 074.0095 197.4293 0066084 022.5272 337.8762 14.43756062766124
Epoch (UTC): 23 January 2020 12:24:42
Eccentricity: 0.0066084
inclination: 74.0095°
perigee height: 699 km
apogee height: 793 km
right ascension of ascending node: 197.4293°
argument of perigee: 22.5272°
revolutions per day: 14.43756062
mean anomaly at epoch: 337.8762°
orbit number at epoch: 76612

The dashed part of the orbit path shows where the satellite is in the earth's shadow,  

DLR